Погода в Тпиге

Россия / Республика Дагестан     41°46′51″N   47°35′32″E
темп.,
°C
ветер,
м/с
пор.,
м/с
влажн.,
%
обл.,
%
осадки,
мм/ч
давл.,
гПа
погр.,
м
15 мая, сб
сб1500:00+5зюз32860 0.0 102124
03:00+4зюз32870 0.0 102125
06:00+6з22770 0.0 102074
09:00+13ююв01420 0.0 10171440
12:00+15вюв324094 0.1 10162603
15:00+11св116796 5.4 1018350
18:00+9юз22754 4.3 1019146
21:00+6з227698 4.3 102013
16 мая, вс
вс1600:00+5з228495 0.0 101915
03:00+4з22845 0.0 101913
06:00+6зюз22815 0.0 101880
09:00+12юз33481 0.0 1015929
12:00+14ююз33330 0.0 10131716
15:00+15ююз33350 0.0 10121683
18:00+11юз33540 0.0 1013200
21:00+5зюз33655 0.0 101733
17 мая, пн
пн1700:00+5зюз43510 0.0 101643
03:00+5зюз43455 0.0 101533
06:00+8зюз3354100 0.0 101470
09:00+15юз34404 0.0 1011972
12:00+16зюз462825 0.0 10111795
15:00+16зюз45280 0.0 10111841
18:00+13юз224139 0.0 101232
21:00+8зюз324186 0.0 101518
18 мая, вт
вт1800:00+9з3250100 0.0 101530
03:00+8зюз224894 0.0 101313
06:00+11ююз12515 0.0 101247
09:00+16ю493528 0.0 10092743
12:00+16ю6103833 0.2 10092695
15:00+12ююв456181 4.1 1011811
18:00+7ю4487100 6.4 1015381
21:00+6зюз1184100 9.2 101727
19 мая, ср
ср1900:00+7зюз1180100 0.4 101619
03:00+4ю11935 0.6 101810
06:00+6с118911 0.0 1020171
09:00+10св226236 0.1 10181274
12:00+13в335788 0.4 10171325
15:00+10вюв228295 0.9 1019589
18:00+9ю229061 0.4 1020312
21:00+7юз229196 0.4 102124